Temperature
24 23 22 22 22 22 22 22 21 21 21 20 20 20 20 19 19 18 17 17 16 16 16 16 16 16 16 16 16 16 16 16 17 17 17 17 18 18 18 18 18 19 19
24 23 22 22 22 22 22 22 22 21 21 21 20 20 20 19 18 18 17 17 16 16 16 15 16 15 15 16 15 15 15 16 16 16 17 18 19 19 19 18 18 18 19
24 23 23 22 22 21 21 21 21 21 21 20 20 20 19 19 18 18 17 16 16 16 16 16 15 15 15 15 15 15 15 15 16 16 16 17 19 20 20 19 19 18 18
23 23 22 22 21 21 21 21 20 21 21 20 20 19 19 19 18 18 17 16 16 16 16 15 15 15 15 14 15 14 14 14 15 16 16 16 17 18 19 20 19 18 18
22 21 21 20 20 20 20 20 20 20 20 20 20 19 19 18 18 17 17 17 15 15 15 15 15 15 14 14 15 15 14 14 14 15 15 16 16 16 16 18 19 19 18
20 19 19 19 19 19 19 19 19 20 19 19 19 19 18 18 18 17 17 16 16 15 14 14 14 14 14 14 14 14 14 14 14 14 14 15 15 16 16 17 17 18 18
17 17 17 17 17 17 18 18 18 18 18 18 18 18 18 17 17 17 16 16 15 15 14 14 14 14 14 14 14 14 14 13 13 13 14 14 15 15 16 16 17 17 17
16 15 15 14 14 14 15 16 16 16 16 16 16 17 17 16 16 16 16 15 15 15 15 15 14 14 14 14 14 13 13 13 13 13 13 14 14 15 15 15 15 16 16
15 15 14 14 13 13 13 13 14 14 14 15 15 15 15 15 15 15 15 15 15 15 14 14 14 14 14 14 14 13 13 13 13 13 13 14 14 14 15 15 15 15 15
15 14 14 13 13 13 12 12 12 12 13 13 14 14 14 14 15 15 15 15 15 15 14 14 14 13 13 13 13 13 13 13 13 13 13 14 14 14 14 14 15 15 14
15 14 13 12 12 12 12 11 11 11 12 12 12 13 13 13 13 14 14 14 14 14 14 14 13 13 13 13 13 12 12 12 13 13 13 13 13 14 14 14 14 14 14
14 13 13 12 11 11 11 10 10 10 11 11 11 11 12 12 12 13 13 13 13 14 13 13 13 13 12 12 12 12 12 12 12 12 12 13 13 13 13 13 14 14 13
13 12 11 11 10 10 10 10 10 10 10 10 10 10 10 11 11 12 12 12 13 13 13 12 12 12 12 12 12 12 12 12 12 12 12 12 13 13 13 13 13 13 12
11 10 10 10 10 9 9 9 9 9 9 9 9 9 9 10 10 10 11 11 12 12 12 12 12 12 12 12 12 12 12 12 12 12 12 12 12 12 12 12 12 12 12
11 10 10 10 10 10 10 9 9 9 9 9 9 9 9 9 9 10 10 10 11 11 12 12 12 12 12 12 12 11 11 11 11 11 11 11 11 11 11 11 11 11 11
12 11 11 11 10 10 10 10 9 9 9 9 9 9 9 9 9 9 9 10 10 11 11 11 12 11 12 12 12 11 11 11 11 11 11 11 11 11 11 11 11 11 11
12 11 11 11 10 10 10 10 9 9 9 9 9 9 9 9 9 9 9 9 9 10 10 11 11 11 11 12 12 11 11 11 11 11 11 11 10 10 11 11 11 10 10
11 11 10 10 10 10 10 9 9 9 9 9 9 9 9 9 9 9 9 8 9 9 10 10 11 11 11 11 11 11 10 11 11 11 11 11 10 10 10 10 10 10 10
10 10 10 10 10 9 9 9 9 9 9 9 9 9 9 9 9 9 9 8 8 8 9 9 10 10 11 11 11 11 11 10 10 10 10 10 10 10 10 10 10 10 10
10 10 9 9 9 9 9 9 9 8 8 8 8 8 8 8 8 8 8 8 8 8 8 9 9 10 10 11 11 11 11 11 10 10 10 10 10 10 10 10 10 10 10
9 9 9 9 9 8 8 8 8 8 8 8 8 8 7 7 7 7 8 8 8 8 8 8 9 9 10 10 11 11 11 11 11 11 10 10 10 10 10 10 10 10 10
9 9 9 9 8 8 8 8 7 7 7 7 7 7 7 7 8 8 8 8 8 8 8 8 8 9 9 10 10 10 10 11 11 11 11 10 10 10 10 10 10 10 10
9 9 8 8 8 8 7 7 7 7 6 6 6 6 6 7 7 7 8 8 8 8 8 8 8 8 9 9 10 10 10 10 11 11 11 11 10 10 10 10 10 10 10
9 8 8 8 7 7 6 6 6 6 6 6 6 6 6 6 6 7 7 8 8 8 8 7 7 8 8 9 10 10 10 10 10 10 10 10 10 10 10 10 10 10 10
8 8 7 6 6 6 5 5 5 5 5 5 5 5 5 6 6 7 7 8 8 8 7 7 7 8 8 9 10 10 10 10 10 10 10 10 10 10 9 10 10 10 10
7 7 6 5 5 5 5 5 5 5 5 5 5 5 5 5 6 6 7 7 7 7 7 7 7 7 8 8 9 10 10 10 10 10 10 10 11 11 10 10 10 10 10
Wind_Speed
6 6 7 7 8 8 8 7 7 7 6 4 4 3 3 3 4 5 5 7 8 9 8 10 10 10 11 12 14 13 14 14 12 12 14 15 17 18 16 16 16 18 18
6 7 7 7 7 7 7 7 7 7 6 5 4 3 3 4 4 5 4 6 7 8 8 9 10 10 10 12 13 13 13 13 11 11 12 13 14 15 17 16 17 18 16
7 7 7 6 5 5 5 4 4 5 7 6 6 4 4 5 5 5 5 5 7 8 8 9 10 10 11 11 12 12 14 14 13 13 12 12 13 12 12 15 15 15 15
3 3 3 2 2 2 2 3 5 6 7 8 8 8 6 6 5 5 6 6 7 7 8 8 9 10 10 11 12 13 12 14 14 13 14 16 16 14 13 12 13 14 15
3 4 3 3 3 3 4 5 6 7 8 9 9 8 9 7 6 5 6 7 7 6 7 8 9 10 10 11 12 13 13 12 14 14 14 15 15 17 15 15 13 12 13
8 9 9 8 7 7 6 7 7 8 8 9 9 9 9 8 8 8 8 8 7 6 7 8 9 10 11 11 12 13 14 14 15 14 14 14 14 14 14 16 15 14 12
13 13 14 13 13 12 11 8 7 7 7 8 8 8 9 9 9 9 8 8 8 8 7 9 9 10 11 12 13 13 14 15 15 15 14 14 15 14 14 14 14 14 10
15 15 15 15 14 14 14 12 10 8 7 6 6 7 8 9 9 9 9 9 8 9 9 10 11 12 13 13 13 13 14 14 14 16 16 14 14 14 14 14 13 12 10
14 14 14 14 14 14 14 14 13 12 11 10 8 7 8 9 10 10 11 10 9 9 10 10 11 12 13 13 14 13 14 13 14 14 15 14 13 13 12 12 11 11 9
12 13 13 13 13 13 12 13 13 12 12 11 10 9 9 10 10 11 12 12 12 11 11 11 11 12 13 13 13 13 13 13 13 11 12 12 11 10 10 10 10 10 8
11 11 11 12 12 12 12 12 12 12 12 12 12 12 11 11 11 11 12 12 12 12 12 12 11 12 12 12 11 12 12 12 11 10 9 9 9 7 6 6 5 5 6
11 12 12 12 12 12 12 12 12 12 12 12 13 13 13 13 13 13 13 13 13 13 13 12 11 11 11 10 10 11 10 10 9 8 7 6 5 5 4 3 3 3 4
13 12 12 12 12 12 12 12 12 12 12 13 12 13 13 14 14 15 15 14 13 14 14 13 12 10 9 9 8 8 7 7 7 6 5 4 3 2 2 3 5 6 7
13 12 11 11 11 11 11 11 11 11 11 11 11 12 12 12 13 15 15 15 14 14 14 13 12 10 8 7 6 5 5 4 4 4 4 4 4 5 6 7 8 9 10
14 13 13 13 13 13 13 13 13 12 12 12 12 12 12 12 13 13 14 15 15 14 14 14 12 10 8 5 4 3 1 1 3 5 6 7 10 10 8 8 8 8 8
16 16 17 18 17 17 17 16 16 16 15 15 16 15 14 14 13 13 14 15 15 14 13 13 13 11 8 5 1 3 2 2 4 5 7 8 11 14 14 14 12 8 8
19 20 21 20 20 20 19 19 19 18 18 18 18 17 16 16 15 14 14 14 14 13 12 13 13 12 8 9 5 3 3 4 5 5 6 8 9 9 10 13 13 12 10
23 23 22 22 22 22 21 21 21 20 19 19 19 18 18 18 16 15 15 14 13 12 11 12 12 12 11 12 9 6 6 6 6 6 8 9 9 8 9 12 12 11 10
24 24 24 24 24 23 23 22 21 21 20 20 19 19 18 18 17 17 15 13 12 12 11 11 12 12 12 14 12 10 8 8 8 8 8 9 10 9 9 12 13 12 11
24 24 25 25 24 24 23 23 22 22 21 20 20 19 18 18 18 17 16 13 11 12 11 11 11 12 12 15 15 13 9 10 9 8 8 9 11 10 8 12 13 13 12
26 26 25 24 23 23 22 23 23 23 22 20 19 19 19 18 18 18 16 14 12 11 10 11 9 11 12 16 17 14 9 11 11 10 9 9 10 9 5 8 11 12 12
27 27 25 24 23 22 23 24 24 23 22 21 20 20 19 18 17 16 15 14 12 11 10 9 8 8 10 14 16 15 10 5 10 10 10 10 12 9 5 7 12 11 9
27 25 25 25 23 22 22 24 23 22 22 21 21 20 19 18 17 17 16 14 12 10 9 7 6 6 8 11 15 14 9 4 7 8 12 15 15 13 9 13 13 10 7
26 25 25 25 24 22 21 21 21 21 21 21 20 18 18 17 17 15 14 13 11 10 8 6 6 5 7 10 13 13 10 11 11 12 14 14 11 9 12 12 10 7 7
26 25 23 23 24 22 21 21 20 20 20 20 18 17 16 16 15 15 13 13 11 8 7 7 6 6 8 10 16 17 15 14 14 15 13 13 12 12 12 11 9 8 8
26 24 24 24 24 23 22 21 21 20 19 17 16 14 13 13 13 13 13 12 11 8 10 10 9 7 8 8 15 16 16 17 20 17 14 14 13 13 12 11 11 10 9
Wind_Direction
180 173 170 166 162 161 162 170 167 165 175 182 199 214 240 267 284 291 305 300 303 306 299 296 301 291 288 289 288 283 276 268 264 265 265 260 253 249 248 245 246 242 239
189 175 169 163 162 157 156 167 170 172 187 186 204 225 264 273 293 298 298 296 303 304 299 301 297 295 294 286 282 280 279 276 266 260 267 268 259 244 241 240 238 243 242
204 180 169 158 159 165 168 178 187 187 203 202 210 210 228 249 261 283 288 298 303 302 302 299 295 297 290 286 286 284 276 275 272 260 258 265 267 268 250 235 238 241 242
217 180 163 153 191 214 206 229 233 221 218 217 226 233 252 273 296 297 301 302 293 297 299 296 295 293 291 289 284 280 279 275 272 266 254 255 268 274 271 251 236 234 239
36 38 26 11 334 315 291 268 256 244 233 231 233 237 249 263 277 288 290 291 294 290 293 296 294 292 289 289 287 285 277 272 269 270 267 261 257 254 257 261 257 242 234
34 30 21 14 358 341 313 287 271 260 250 242 242 243 254 263 275 280 290 290 294 293 294 294 292 290 290 289 286 282 276 270 268 267 265 261 257 252 248 249 250 251 246
37 34 28 23 17 9 355 335 312 293 277 260 255 252 256 260 259 269 277 284 294 298 303 302 297 294 292 291 289 284 279 274 269 265 263 260 257 258 257 255 253 254 254
41 39 34 30 26 23 17 10 0 348 334 309 292 280 271 266 265 262 276 281 285 293 303 296 292 292 292 291 289 285 280 275 272 268 265 262 259 255 250 249 252 252 247
36 33 30 26 24 22 20 18 15 11 4 353 339 316 297 284 281 277 265 269 271 279 282 287 289 291 292 292 291 286 284 280 274 270 266 261 259 254 250 245 241 241 241
25 22 19 17 15 13 14 13 12 9 3 359 350 340 324 307 293 283 278 274 272 271 273 277 283 288 293 295 295 295 292 288 283 278 273 267 261 256 251 245 238 231 231
5 4 4 2 1 1 2 2 1 359 357 354 347 340 333 325 314 298 287 277 270 266 265 270 278 285 293 298 299 300 303 300 297 294 286 281 273 263 255 243 231 218 201
345 346 347 348 348 348 347 347 345 345 343 342 340 337 333 331 324 316 305 291 276 266 262 264 270 279 289 295 298 303 310 312 311 308 305 305 300 276 251 218 184 161 150
332 331 333 333 334 332 330 328 327 329 328 328 327 327 326 328 326 320 313 302 286 271 264 259 262 271 281 287 293 301 310 316 319 319 327 334 360 37 79 107 111 110 113
313 310 311 310 309 307 306 305 305 306 308 308 307 308 310 315 317 318 316 309 294 276 262 256 255 260 265 274 287 295 309 329 348 1 13 24 54 74 86 91 99 107 112
300 296 294 296 297 298 298 296 294 293 292 290 290 290 291 297 301 307 311 308 298 282 264 254 249 246 247 250 270 276 305 17 55 54 50 60 75 73 79 94 103 112 117
303 303 302 303 303 303 301 300 297 295 292 289 289 289 288 288 292 297 303 306 302 291 275 254 244 238 233 127 129 277 149 111 97 88 83 82 82 82 80 80 77 82 113
309 308 307 305 303 301 300 297 296 294 291 289 288 287 285 285 287 292 298 304 305 298 286 264 246 233 198 149 171 229 172 135 115 107 102 97 94 95 102 95 88 76 71
309 306 304 302 300 299 298 296 293 291 289 287 285 285 284 282 282 284 289 296 302 300 292 276 253 232 194 164 174 192 175 137 127 120 115 113 111 111 115 113 104 94 73
304 302 300 299 299 297 295 293 291 289 287 285 285 284 284 283 280 279 282 288 294 297 293 283 262 234 193 170 175 194 170 149 139 135 130 128 126 128 128 119 112 104 92
303 301 299 297 295 294 294 292 289 286 284 284 283 283 282 280 277 276 278 279 282 287 291 284 268 242 205 175 178 198 179 157 150 140 137 137 139 149 156 134 127 121 117
302 300 298 296 294 294 292 288 286 284 283 282 281 279 277 276 273 270 269 269 273 282 287 285 271 250 215 176 181 198 196 167 163 158 158 145 139 157 172 158 138 132 133
303 302 299 296 295 293 289 286 284 284 283 280 277 275 273 272 271 265 262 261 266 273 278 280 272 252 218 182 184 191 218 208 169 164 156 142 145 149 156 141 128 145 161
302 301 299 297 295 292 288 286 287 287 284 280 276 274 271 268 266 264 260 255 253 261 272 277 262 244 218 179 169 176 185 196 168 137 115 131 140 138 125 128 145 172 164
303 302 300 297 296 294 290 287 287 285 281 277 274 271 268 265 260 256 254 250 249 253 264 269 257 231 223 186 173 172 163 142 132 123 121 131 149 141 126 148 173 183 150
303 301 299 298 296 294 290 287 285 281 278 274 270 267 263 263 262 255 249 249 247 249 259 266 255 222 216 200 176 170 171 169 151 145 147 150 152 153 157 164 163 152 148
303 303 301 298 296 294 289 286 282 277 273 269 265 261 257 257 257 253 246 224 230 201 212 232 234 229 223 199 173 165 152 141 147 158 159 161 162 161 160 159 158 158 154
Height
1508 1509 1510 1512 1513 1514 1516 1518 1519 1520 1522 1524 1525 1526 1526 1525 1524 1522 1519 1516 1514 1511 1509 1507 1505 1503 1502 1500 1498 1497 1495 1493 1493 1491 1489 1488 1488 1487 1487 1487 1488 1489 1490
1507 1508 1510 1511 1513 1514 1516 1517 1518 1520 1521 1522 1523 1523 1523 1522 1521 1518 1515 1512 1510 1507 1506 1503 1501 1499 1496 1494 1492 1491 1489 1488 1488 1487 1484 1482 1481 1479 1479 1479 1480 1481 1482
1506 1508 1510 1511 1513 1514 1515 1517 1518 1519 1519 1520 1520 1520 1519 1518 1518 1516 1513 1509 1506 1503 1501 1499 1496 1494 1492 1490 1487 1485 1484 1482 1481 1481 1480 1477 1473 1472 1472 1472 1472 1473 1475
1506 1508 1510 1511 1513 1514 1514 1515 1516 1516 1517 1517 1518 1518 1517 1516 1515 1512 1510 1506 1503 1500 1497 1495 1492 1490 1488 1485 1483 1481 1478 1476 1475 1474 1473 1472 1470 1469 1467 1466 1466 1466 1467
1507 1508 1510 1511 1512 1513 1514 1514 1514 1514 1514 1514 1514 1514 1513 1513 1511 1508 1506 1502 1500 1497 1494 1491 1489 1486 1483 1480 1477 1475 1472 1470 1468 1467 1466 1465 1463 1463 1462 1460 1460 1460 1460
1508 1509 1510 1510 1511 1511 1511 1511 1511 1510 1510 1510 1509 1509 1509 1508 1506 1504 1502 1500 1498 1495 1492 1488 1485 1482 1479 1476 1473 1469 1466 1463 1461 1460 1458 1458 1456 1455 1455 1454 1454 1454 1455
1511 1510 1510 1509 1508 1508 1507 1507 1506 1505 1505 1504 1504 1503 1503 1502 1501 1500 1498 1496 1494 1491 1488 1485 1481 1478 1475 1471 1468 1464 1460 1457 1454 1452 1451 1449 1448 1448 1448 1447 1447 1447 1448
1514 1513 1512 1511 1509 1507 1505 1503 1502 1501 1500 1499 1498 1497 1497 1497 1497 1495 1493 1491 1489 1487 1483 1480 1477 1474 1470 1466 1462 1458 1454 1451 1448 1445 1443 1441 1440 1440 1440 1440 1441 1441 1442
1518 1516 1515 1513 1511 1509 1506 1504 1501 1499 1497 1496 1494 1493 1492 1491 1490 1488 1487 1486 1483 1481 1478 1475 1472 1469 1466 1462 1457 1453 1449 1445 1441 1438 1436 1433 1432 1432 1432 1433 1434 1436 1437
1520 1518 1516 1514 1512 1510 1507 1504 1501 1499 1496 1494 1492 1490 1488 1486 1484 1482 1481 1479 1477 1475 1473 1471 1468 1465 1461 1457 1453 1449 1444 1440 1436 1432 1429 1427 1425 1425 1425 1426 1427 1429 1432
1520 1519 1517 1514 1512 1509 1506 1503 1500 1497 1494 1492 1489 1486 1484 1481 1479 1477 1475 1473 1471 1469 1467 1465 1463 1460 1457 1453 1449 1444 1440 1435 1431 1427 1424 1421 1420 1419 1419 1420 1422 1423 1426
1520 1518 1515 1512 1509 1506 1503 1500 1497 1494 1491 1488 1485 1482 1479 1476 1473 1471 1468 1466 1464 1462 1461 1459 1457 1455 1452 1449 1445 1440 1436 1432 1427 1424 1421 1418 1416 1415 1415 1417 1418 1420 1423
1517 1514 1511 1508 1505 1502 1498 1495 1492 1488 1485 1483 1479 1477 1474 1470 1466 1464 1462 1459 1457 1455 1455 1454 1452 1450 1447 1444 1441 1437 1433 1429 1425 1422 1419 1417 1415 1414 1414 1415 1416 1419 1422
1513 1509 1506 1503 1500 1496 1493 1489 1486 1482 1479 1476 1473 1469 1467 1463 1460 1457 1455 1452 1450 1449 1448 1447 1446 1445 1443 1440 1438 1435 1431 1428 1425 1422 1419 1417 1415 1415 1415 1415 1417 1420 1423
1508 1505 1501 1498 1495 1491 1488 1484 1480 1477 1473 1470 1467 1463 1460 1457 1454 1451 1449 1446 1444 1442 1441 1440 1440 1439 1438 1437 1435 1432 1430 1427 1425 1423 1421 1419 1418 1418 1418 1419 1421 1423 1426
1503 1500 1497 1493 1490 1486 1482 1479 1475 1472 1468 1465 1461 1458 1455 1453 1450 1447 1443 1440 1438 1435 1434 1433 1433 1433 1434 1432 1431 1430 1429 1427 1425 1424 1423 1422 1421 1422 1423 1424 1426 1428 1431
1498 1495 1491 1488 1484 1480 1476 1472 1468 1465 1462 1458 1455 1452 1449 1446 1444 1442 1438 1435 1432 1429 1426 1426 1426 1427 1427 1427 1428 1428 1428 1427 1426 1425 1425 1424 1425 1426 1427 1429 1431 1433 1436
1493 1489 1485 1480 1476 1472 1468 1464 1461 1457 1454 1450 1447 1444 1442 1439 1437 1435 1432 1429 1426 1423 1420 1419 1419 1420 1422 1423 1424 1425 1426 1427 1427 1427 1427 1427 1428 1430 1432 1434 1436 1438 1440
1487 1482 1477 1473 1468 1464 1460 1455 1452 1448 1445 1442 1439 1436 1434 1431 1429 1428 1426 1423 1420 1417 1414 1412 1412 1414 1416 1418 1420 1423 1425 1426 1427 1428 1430 1431 1432 1434 1436 1438 1440 1442 1444
1479 1474 1469 1464 1459 1454 1451 1446 1442 1439 1436 1433 1430 1428 1425 1423 1421 1419 1418 1416 1414 1411 1409 1406 1405 1407 1410 1413 1416 1420 1423 1425 1427 1429 1431 1433 1435 1437 1439 1441 1443 1445 1448
1471 1465 1459 1454 1449 1445 1441 1436 1432 1429 1426 1423 1420 1418 1416 1414 1412 1411 1410 1408 1407 1405 1403 1400 1399 1400 1404 1407 1412 1416 1420 1424 1426 1429 1432 1434 1436 1439 1442 1444 1446 1448 1450
1461 1456 1450 1444 1440 1435 1431 1425 1421 1418 1416 1413 1410 1408 1406 1405 1404 1402 1401 1401 1400 1399 1397 1395 1393 1394 1397 1402 1408 1413 1417 1422 1425 1428 1431 1433 1437 1440 1443 1446 1448 1450 1452
1451 1446 1440 1433 1429 1425 1420 1415 1410 1408 1404 1402 1399 1397 1396 1395 1394 1394 1393 1393 1393 1392 1391 1389 1388 1388 1391 1397 1403 1409 1415 1419 1423 1427 1429 1433 1437 1441 1444 1446 1449 1451 1454
1442 1436 1429 1423 1417 1413 1409 1404 1399 1396 1393 1390 1387 1386 1385 1384 1384 1384 1384 1385 1385 1385 1385 1384 1383 1384 1387 1392 1399 1405 1411 1417 1421 1424 1428 1433 1437 1441 1444 1446 1450 1453 1455
1432 1426 1419 1412 1406 1401 1396 1391 1387 1384 1380 1377 1376 1375 1375 1374 1374 1375 1375 1376 1377 1378 1379 1379 1378 1379 1382 1388 1396 1402 1409 1415 1419 1423 1428 1433 1437 1441 1444 1447 1450 1452 1454
1422 1415 1408 1401 1394 1388 1382 1378 1374 1371 1367 1365 1365 1364 1364 1365 1365 1366 1367 1367 1370 1370 1371 1371 1372 1375 1379 1385 1393 1401 1408 1413 1417 1423 1428 1433 1437 1440 1443 1446 1449 1452 1454